TimeEDT,TemperatureF,Dew PointF,Humidity,Sea Level PressureIn,VisibilityMPH,Wind Direction,Wind SpeedMPH,Gust SpeedMPH,PrecipitationIn,Events,Conditions,WindDirDegrees,DateUTC
12:54 AM,64.0,62.1,93,30.07,4.0,Calm,Calm,-,N/A,,Clear,0,2008-09-03 04:54:00
1:33 AM,62.6,62.6,100,30.14,2.5,Calm,Calm,-,N/A,,Partly Cloudy,0,2008-09-03 05:33:00
1:51 AM,62.6,62.6,100,30.14,3.0,Calm,Calm,-,N/A,,Clear,0,2008-09-03 05:51:00
1:54 AM,63.0,62.1,97,30.07,3.0,Calm,Calm,-,N/A,,Clear,0,2008-09-03 05:54:00
2:11 AM,62.6,60.8,94,30.13,1.8,Calm,Calm,-,N/A,,Clear,0,2008-09-03 06:11:00
2:14 AM,60.8,60.8,100,30.13,0.8,Calm,Calm,-,N/A,,Clear,0,2008-09-03 06:14:00
2:22 AM,60.8,60.8,100,30.13,0.8,Calm,Calm,-,N/A,,Mist,0,2008-09-03 06:22:00
2:25 AM,60.8,60.8,100,30.13,1.2,Calm,Calm,-,N/A,,Partly Cloudy,0,2008-09-03 06:25:00
2:28 AM,60.8,60.8,100,30.13,2.0,Calm,Calm,-,N/A,,Scattered Clouds,0,2008-09-03 06:28:00
2:44 AM,60.8,60.8,100,30.13,1.2,Calm,Calm,-,N/A,,Scattered Clouds,0,2008-09-03 06:44:00
2:46 AM,60.8,60.8,100,30.13,0.8,Calm,Calm,-,N/A,,Mist,0,2008-09-03 06:46:00
2:54 AM,60.1,60.1,100,30.06,0.8,SW,3.5,-,N/A,,Mostly Cloudy,230,2008-09-03 06:54:00
2:59 AM,60.8,60.8,100,30.13,1.5,Calm,Calm,-,N/A,,Scattered Clouds,0,2008-09-03 06:59:00
3:08 AM,60.8,60.8,100,30.13,3.0,Calm,Calm,-,N/A,,Partly Cloudy,0,2008-09-03 07:08:00
3:39 AM,60.8,60.8,100,30.12,2.0,Calm,Calm,-,N/A,,Clear,0,2008-09-03 07:39:00
3:50 AM,60.8,60.8,100,30.12,4.0,Calm,Calm,-,N/A,,Clear,0,2008-09-03 07:50:00
3:54 AM,60.1,59.0,96,30.05,2.5,Calm,Calm,-,N/A,,Clear,0,2008-09-03 07:54:00
3:57 AM,59.0,57.2,94,30.12,1.2,Calm,Calm,-,N/A,,Partly Cloudy,0,2008-09-03 07:57:00
4:01 AM,59.0,57.2,94,30.12,0.8,Calm,Calm,-,N/A,,Mist,0,2008-09-03 08:01:00
4:07 AM,59.0,59.0,100,30.12,0.2,Calm,Calm,-,N/A,Fog,Fog,0,2008-09-03 08:07:00
4:22 AM,59.0,59.0,100,30.12,0.8,Calm,Calm,-,N/A,,Mist,0,2008-09-03 08:22:00
4:26 AM,59.0,59.0,100,30.12,1.2,Calm,Calm,-,N/A,,Scattered Clouds,0,2008-09-03 08:26:00
4:29 AM,59.0,57.2,94,30.12,2.0,Calm,Calm,-,N/A,,Scattered Clouds,0,2008-09-03 08:29:00
4:38 AM,57.2,57.2,100,30.11,4.0,Calm,Calm,-,N/A,,Partly Cloudy,0,2008-09-03 08:38:00
4:54 AM,59.0,57.9,96,30.04,5.0,Calm,Calm,-,N/A,,Clear,0,2008-09-03 08:54:00
5:01 AM,57.2,57.2,100,30.11,3.0,Calm,Calm,-,N/A,,Scattered Clouds,0,2008-09-03 09:01:00
5:03 AM,57.2,57.2,100,30.11,1.8,Calm,Calm,-,N/A,,Scattered Clouds,0,2008-09-03 09:03:00
5:05 AM,57.2,57.2,100,30.11,1.2,Calm,Calm,-,N/A,,Mostly Cloudy,0,2008-09-03 09:05:00
5:16 AM,57.2,57.2,100,30.10,2.0,Calm,Calm,-,N/A,,Mostly Cloudy,0,2008-09-03 09:16:00
5:25 AM,57.2,57.2,100,30.10,1.2,Calm,Calm,-,N/A,,Overcast,0,2008-09-03 09:25:00
5:36 AM,59.0,59.0,100,30.10,0.5,Calm,Calm,-,N/A,Fog,Fog,0,2008-09-03 09:36:00
5:43 AM,59.0,59.0,100,30.10,0.2,Calm,Calm,-,N/A,Fog,Fog,0,2008-09-03 09:43:00
5:51 AM,59.0,59.0,100,30.10,0.5,Calm,Calm,-,N/A,Fog,Fog,0,2008-09-03 09:51:00
5:54 AM,59.0,59.0,100,30.04,0.5,Calm,Calm,-,N/A,Fog,Fog,0,2008-09-03 09:54:00
6:01 AM,59.0,59.0,100,30.11,0.2,Calm,Calm,-,N/A,Fog,Fog,0,2008-09-03 10:01:00
6:54 AM,59.0,59.0,100,30.05,0.2,Calm,Calm,-,N/A,Fog,Fog,0,2008-09-03 10:54:00
7:39 AM,59.0,59.0,100,30.12,0.2,Calm,Calm,-,N/A,Fog,Fog,0,2008-09-03 11:39:00
7:54 AM,60.1,60.1,100,30.06,0.2,Calm,Calm,-,N/A,Fog,Fog,0,2008-09-03 11:54:00
8:47 AM,60.8,60.8,100,30.13,0.2,Calm,Calm,-,N/A,Fog,Fog,0,2008-09-03 12:47:00
8:54 AM,60.1,60.1,100,30.08,0.2,Calm,Calm,-,N/A,Fog,Fog,0,2008-09-03 12:54:00
9:03 AM,60.8,60.8,100,30.13,0.8,Calm,Calm,-,N/A,,Overcast,0,2008-09-03 13:03:00
9:10 AM,60.8,60.8,100,30.13,1.0,Calm,Calm,-,N/A,,Overcast,0,2008-09-03 13:10:00
9:47 AM,60.8,60.8,100,30.13,1.8,Calm,Calm,-,N/A,,Overcast,0,2008-09-03 13:47:00
9:54 AM,61.0,61.0,100,30.08,2.5,Calm,Calm,-,N/A,,Overcast,0,2008-09-03 13:54:00
10:03 AM,60.8,60.8,100,30.13,2.5,Calm,Calm,-,N/A,,Overcast,0,2008-09-03 14:03:00
10:12 AM,62.6,62.6,100,30.13,3.0,Calm,Calm,-,N/A,,Overcast,0,2008-09-03 14:12:00
10:33 AM,64.4,62.6,94,30.13,4.0,Calm,Calm,-,N/A,,Clear,0,2008-09-03 14:33:00
10:54 AM,68.0,64.4,88,30.13,5.0,South,3.5,-,N/A,,Clear,180,2008-09-03 14:54:00
11:54 AM,73.0,63.0,71,30.05,7.0,Variable,3.5,-,N/A,,Clear,0,2008-09-03 15:54:00
12:54 PM,79.0,60.1,52,30.02,10.0,Variable,3.5,-,N/A,,Clear,0,2008-09-03 16:54:00
1:54 PM,79.0,55.9,45,30.01,10.0,SSE,8.1,-,N/A,,Clear,160,2008-09-03 17:54:00
2:54 PM,81.0,54.0,39,30.00,10.0,Variable,3.5,-,N/A,,Clear,0,2008-09-03 18:54:00
3:54 PM,82.0,48.9,31,29.98,10.0,Variable,3.5,-,N/A,,Clear,0,2008-09-03 19:54:00
4:54 PM,81.0,57.9,45,29.96,10.0,South,8.1,-,N/A,,Clear,180,2008-09-03 20:54:00
5:54 PM,81.0,57.0,44,29.96,10.0,Variable,5.8,-,N/A,,Clear,0,2008-09-03 21:54:00
6:54 PM,79.0,59.0,50,29.96,10.0,SSE,6.9,-,N/A,,Clear,160,2008-09-03 22:54:00
7:54 PM,73.4,57.2,57,30.03,10.0,SE,3.5,-,N/A,,Clear,140,2008-09-03 23:54:00
8:54 PM,70.0,59.0,68,29.98,10.0,Calm,Calm,-,N/A,,Clear,0,2008-09-04 00:54:00
10:54 PM,64.0,60.1,87,30.00,9.0,Calm,Calm,-,N/A,,Clear,0,2008-09-04 02:54:00
11:54 PM,63.0,60.1,90,30.00,7.0,Calm,Calm,-,N/A,,Clear,0,2008-09-04 03:54:00